Flag for Canada Weather past 2 weeks in Edmonton, Alberta, Canada

Now
67 °F

Mild.


Feels Like: 67 °F
Forecast: 51 / 80 °F
Wind: 8 mph from East

Location: Edmonton Municipal

Current Time: May 23, 2015 at 11:40:19 PM

Latest Report: May 23, 2015 at 11:00 PM


Visibility: N/A

Pressure: 30.05 "Hg

Humidity: 27%

Dew point: 32 °F

Location of EdmontonLocation

Historic Weather in Edmonton — Graph

°F

Edmonton temperature yesterday

Maximum temperature yesterday: 78 °F (at 5:00 PM)
Minimum temperature yesterday: 43 °F (at 5:00 AM)
Average temperature yesterday: 66 °F

Past Weeks' High & Low Weather Summary

 TemperatureHumidityPressure
High80 °F (May 23, 4:00 PM)87% (May 16, 8:00 AM)30.51 "Hg (May 16, 8:00 AM)
Low31 °F (May 17, 5:00 AM)11% (May 22, 5:00 PM)29.84 "Hg (May 15, 8:00 PM)
Average55 °F34%30.15 "Hg
* Reported May 8 10:00 PM — May 23 10:00 PM, Edmonton, Weather by CustomWeather, © 2015

Note: Actual official high and low records may vary slightly from our data, if they occured in-between our weather recording intervals... More about our weather records

Advertising

Edmonton weather history for previous 24 hours

 ConditionsComfort  
Time TempWeatherWind HumidityBarometerVisibility
10:00 PM
Sat, May 23
69 °FMild.7 mph23%30.05 "HgN/A
9:00 PM73 °FMild.7 mph19%30.04 "HgN/A
8:00 PM76 °FMild.10 mph16%30.05 "HgN/A
7:00 PM76 °FMild.9 mph15%30.07 "HgN/A
6:00 PM80 °FPleasantly warm.7 mph12%30.07 "HgN/A
5:00 PM80 °FPleasantly warm.3 mph11%30.09 "HgN/A
4:00 PM80 °FPleasantly warm.12 mph13%30.10 "HgN/A
3:00 PM78 °FPleasantly warm.5 mph14%30.11 "HgN/A
2:00 PM80 °FPleasantly warm.5 mph13%30.11 "HgN/A
1:00 PM79 °FPleasantly warm.8 mph12%30.11 "HgN/A
12:00 PM78 °FPleasantly warm.3 mph13%30.11 "HgN/A
11:00 AM75 °FMild.5 mph16%30.12 "HgN/A
10:00 AM73 °FMild.3 mph19%30.11 "HgN/A
9:00 AM68 °FMild.2 mph24%30.10 "HgN/A
8:00 AM62 °FRefreshingly cool.1 mph36%30.10 "HgN/A
7:00 AM54 °FCool.1 mph47%30.11 "HgN/A
6:00 AM51 °FCool.No wind51%30.11 "HgN/A
5:00 AM49 °FCool.5 mph56%30.10 "HgN/A
4:00 AM51 °FCool.1 mph49%30.08 "HgN/A
3:00 AM54 °FCool.2 mph41%30.06 "HgN/A
2:00 AM56 °FRefreshingly cool.2 mph36%30.05 "HgN/A
1:00 AM57 °FRefreshingly cool.2 mph37%30.05 "HgN/A
12:00 AM62 °FRefreshingly cool.1 mph29%30.03 "HgN/A
11:00 PM
Fri, May 22
63 °FMild.5 mph28%30.01 "HgN/A
Weather by CustomWeather, © 2015

See weather overviewHow to use our weather pages